Overview Statistics Trail Chart Weather Telemetry Raw packets
 

This is the latest recevied weather packets stored in our database for station/object N8BAP. If no packets are shown the sender has not sent any weather packets the latest 10 day(s).

<< 2 3 4 5 6 7 8 >>
Time Temp. Humidity Pressure Rain* Wind** Luminosity Snow
1788606843 20° C 95% 1021.6 hPa 3.05 mm - 0 W/m² -
1788606542 20° C 95% 1021.7 hPa 3.05 mm - 0 W/m² -
1788606237 20° C 95% 1021.6 hPa 1.27 mm - 0 W/m² -
1788605932 20° C 95% 1021.5 hPa 0 mm - 0 W/m² -
1788605631 19.44° C 95% 1021 hPa 0 mm - 0 W/m² -
1788605325 19.44° C 95% 1021 hPa 0 mm - 0 W/m² -
1788605022 19.44° C 94% 1021.1 hPa 0 mm - 0 W/m² -
1788604721 20° C 94% 1021.1 hPa 0 mm - 0 W/m² -
1788604417 20° C 93% 1021 hPa 0 mm - 0 W/m² -
1788604113 20° C 92% 1021.4 hPa 1.78 mm - 0 W/m² -
1788603809 20° C 92% 1021.5 hPa 1.78 mm - 0 W/m² -
1788603509 20.56° C 91% 1021.2 hPa 1.27 mm - 0 W/m² -
1788603207 20.56° C 89% 1021.3 hPa 1.27 mm - 0 W/m² -
1788602902 21.11° C 89% 1021.5 hPa 0 mm - 0 W/m² -
1788602597 21.11° C 92% 1021.3 hPa 0 mm - 0 W/m² -
1788602296 21.67° C 94% 1021.4 hPa 0 mm - 0 W/m² -
1788601991 21.67° C 97% 1021.1 hPa 0 mm - 0 W/m² -
1788601686 21.67° C 98% 1020.8 hPa 0 mm - 0 W/m² -
1788601408 21.67° C 98% 1019.3 hPa 0 mm - 0 W/m² -
1788601080 21.11° C 98% 1019.2 hPa 0 mm - 0 W/m² -
1788600776 21.11° C 98% 1019.4 hPa 0 mm - 0 W/m² -
1788600472 21.11° C 98% 1019.1 hPa 0 mm - 0 W/m² -
1788600167 21.11° C 99% 1019.3 hPa 0 mm - 0 W/m² -
1788599867 21.11° C 99% 1019 hPa 0 mm - 0 W/m² -
1788599562 21.11° C 99% 1019 hPa 0 mm - 0 W/m² -

* Rain latest hour (hover to see other rain measurements)
** Current wind speed in m/s (hover to see current wind gust speed)